Find Starlink 34145

NORAD ID: 64110 Int'l Des: 2025-110 Owner: SPXS Country: US Constellation: starlink operational
LEOCIRCULAR

当前视图

正在加载3D地球...

About Starlink 34145

Starlink 34145 (NORAD 64110) is a starlink constellation satellite (v2 mini) launched May 23, 2025 by SPXS of US. It operates in LEO, CIRCULAR orbit with a mass of 575.00 kg.

即将过境

Passes for default location (London). Set your location on the main map for personalized predictions.

高度历史

Loading altitude history...

两行轨道根数

1 64110U 25110Q 26237.27983716 .00015573 00000-0 47119-3 0 9990
2 64110 53.1602 320.1892 0001334 84.3708 275.7447 15.34392632 71740
Epoch: Aug 25, 2026 • Age: 6 hours

当前状态

高度 478.0 km
远地点 / 近地点 N/A
速度 7.63 km/s
星下点 -43.30°S, 109.91°E
发射日期 May 23, 2025
运行时间 1.2 years
类型 internet

技术详情

分类 Payload
质量 575.00 kg
干质量 530.00 kg
总质量 575.00 kg
长度 0.30 m
直径 4.10 m
跨度 29.00 m
形状 Box + pan
制造商 SPXS
平台类型 Starlink V2MO
阶段状态 In Orbit
所有者/国家 SPXS/US

Most Searched